Stations météo

réclame
Mon MeteoGroup
Vlissingen, Pays-Bas (6310): Température de l'air & dewpoint: 12.08.2018 02:00:00 - 18.08.2018 02:00:00 (CEST)Vlissingen, Pays-Bas (6310): Température de l'air 5cm: 12.08.2018 02:00:00 - 18.08.2018 02:00:00 (CEST)Vlissingen, Pays-Bas (6310): Vitesse du vent & gusts: 12.08.2018 02:00:00 - 18.08.2018 02:00:00 (CEST)Vlissingen, Pays-Bas (6310): Direction du vent: 12.08.2018 02:00:00 - 18.08.2018 02:00:00 (CEST)Vlissingen, Pays-Bas (6310): reduced air pressure: 12.08.2018 02:00:00 - 18.08.2018 02:00:00 (CEST)Vlissingen, Pays-Bas (6310): visibility: 12.08.2018 02:00:00 - 18.08.2018 02:00:00 (CEST)Vlissingen, Pays-Bas (6310): Quantités de précipitations: 12.08.2018 02:00:00 - 18.08.2018 02:00:00 (CEST)
Date & Time tt [°C] td [°C] tt 5cm [°C] ff [km/h] ff [knt] fx [km/h] fx [knt] dd ppp [hPa] vv [km] rr [mm]
18.08.2018 02:00:00 16,0 13,3 15,3 26 14 32 18 SW 1021,3 10 0,0
18.08.2018 01:00:00 16,7 12,9 15,9 24 13 29 16 SW 1021,4 10 0,0
18.08.2018 00:00:00 17,2 12,8 16,4 24 13 29 16 SSW 1021,3 10 0,0
17.08.2018 23:00:00 18,3 13,8 17,5 26 14 36 19 WSW 1021,3 10 0,0
17.08.2018 22:00:00 19,0 13,0 18,0 22 12 29 16 WSW 1021,1 10 0,0
17.08.2018 21:00:00 18,7 12,5 17,7 16 9 22 12 W 1020,8 10 0,0
17.08.2018 20:00:00 19,0 12,7 19,1 13 7 22 12 W 1020,5 10 0,0
17.08.2018 19:00:00 19,6 12,0 20,4 16 9 25 14 W 1020,2 10 0,0
17.08.2018 18:00:00 20,0 11,2 21,9 16 9 25 14 W 1020,3 10 0,0
17.08.2018 17:00:00 19,9 11,9 22,6 18 10 29 16 W 1020,3 10 0,0
17.08.2018 16:00:00 20,2 12,7 22,8 22 12 32 18 W 1020,4 10 0,0
17.08.2018 15:00:00 20,2 11,7 23,3 21 11 29 16 W 1020,4 10 0,0
17.08.2018 14:00:00 20,1 12,0 23,3 18 10 25 14 W 1020,2 10 0,0
17.08.2018 13:00:00 20,1 11,6 22,9 16 9 29 16 W 1019,9 10 0,0
17.08.2018 12:00:00 20,1 11,9 22,1 21 11 25 14 W 1019,5 10 0,0
17.08.2018 11:00:00 19,3 12,8 19,0 13 7 22 12 WNW 1019,3 10 0,0
17.08.2018 10:00:00 19,4 12,8 20,0 11 6 18 10 NW 1018,6 10 0,0
17.08.2018 09:00:00 18,6 14,3 18,8 9 5 11 6 NW 1018,0 10 0,0
17.08.2018 08:00:00 16,6 14,3 14,6 5 3 11 6 NW 1017,7 10 0,0
17.08.2018 07:00:00 16,4 14,4 14,3 5 3 11 6 NW 1017,0 10 0,0
17.08.2018 06:00:00 16,6 14,3 14,9 8 4 11 6 NW 1016,5 10 0,0
17.08.2018 05:00:00 16,8 13,3 15,6 8 4 14 8 NNW 1015,9 10 0,0
17.08.2018 04:00:00 17,3 12,8 15,5 8 4 14 8 NW 1016,1 10 0,0
17.08.2018 03:00:00 17,4 13,3 16,3 11 6 14 8 NW 1015,4 10 0,0
17.08.2018 02:00:00 17,0 14,3 16,2 8 4 14 8 NW 1015,9 10 1,0
17.08.2018 01:00:00 17,1 14,1 16,2 15 8 25 14 W 1015,6 10 2,1
17.08.2018 00:00:00 17,4 15,1 16,8 18 10 25 14 W 1015,5 10 2,4
16.08.2018 23:00:00 17,5 15,8 17,1 16 9 29 16 WNW 1015,7 10 1,0
16.08.2018 22:00:00 18,9 16,1 18,5 24 13 32 18 WNW 1015,4 10 0,0
16.08.2018 21:00:00 19,6 16,7 18,8 13 7 25 14 WNW 1014,8 10 0,0
16.08.2018 20:00:00 19,3 16,1 18,9 8 4 14 8 NNW 1014,5 10 0,0
16.08.2018 19:00:00 20,2 16,3 20,9 13 7 22 12 NW 1014,5 10 0,0
16.08.2018 18:00:00 21,5 16,4 23,4 26 14 36 19 W 1014,7 10 0,0
16.08.2018 17:00:00 22,2 16,5 24,3 22 12 32 18 W 1014,7 10 0,0
16.08.2018 16:00:00 21,6 16,1 23,1 24 13 32 18 WNW 1014,7 10 0,0
16.08.2018 15:00:00 22,1 15,9 23,5 16 9 29 16 W 1014,5 10 0,0
16.08.2018 14:00:00 23,2 15,7 25,1 24 13 29 16 SW 1014,8 10 0,0
16.08.2018 13:00:00 21,5 16,1 22,2 26 14 29 16 SW 1015,0 10 0,0
16.08.2018 12:00:00 20,6 15,2 21,6 28 15 36 19 SSW 1015,2 10 0,0
16.08.2018 11:00:00 19,5 15,7 19,5 26 14 36 19 SW 1015,5 10 0,0
16.08.2018 10:00:00 19,0 15,9 19,2 26 14 32 18 SW 1015,6 10 0,0
16.08.2018 09:00:00 18,5 16,0 18,9 29 16 36 19 SSW 1015,5 10 0,0
16.08.2018 08:00:00 17,5 15,7 17,1 22 12 29 16 SSW 1015,7 10 0,0
16.08.2018 07:00:00 16,8 15,3 16,2 26 14 32 18 SSW 1016,0 10 0,0
16.08.2018 06:00:00 16,9 15,3 16,3 29 16 36 19 SSW 1016,0 10 0,0
16.08.2018 05:00:00 17,4 15,3 16,7 29 16 36 19 SSW 1016,1 10 0,0
16.08.2018 04:00:00 17,4 15,2 16,7 31 17 40 21 SSW 1016,3 10 0,0
16.08.2018 03:00:00 17,5 14,9 16,8 31 17 40 21 SSW 1016,5 10 0,0
16.08.2018 02:00:00 17,6 14,5 16,9 29 16 36 19 SW 1017,1 10 0,0
16.08.2018 01:00:00 17,9 14,7 17,1 28 15 36 19 SSW 1017,4 10 0,0
16.08.2018 00:00:00 18,4 14,9 17,5 24 13 32 18 SSW 1017,7 10 0,0
15.08.2018 23:00:00 18,5 14,9 17,7 16 9 25 14 SW 1018,0 10 0,0
15.08.2018 22:00:00 19,2 15,9 18,1 13 7 18 10 SW 1017,9 10 0,0
15.08.2018 21:00:00 19,7 15,6 19,1 22 12 29 16 W 1017,8 10 0,0
15.08.2018 20:00:00 20,1 15,6 19,9 22 12 29 16 W 1017,7 10 0,0
15.08.2018 19:00:00 20,3 15,9 20,5 22 12 29 16 W 1018,2 10 0,0
15.08.2018 18:00:00 20,3 15,9 21,1 22 12 29 16 W 1018,5 10 0,0
15.08.2018 17:00:00 21,0 16,3 21,6 21 11 29 16 SSW 1018,7 10 0,0
15.08.2018 16:00:00 21,0 16,4 22,1 26 14 36 19 SW 1018,9 10 0,0
15.08.2018 15:00:00 20,7 16,5 21,3 22 12 29 16 SW 1019,2 10 0,0
15.08.2018 14:00:00 19,8 16,2 20,2 24 13 32 18 SW 1019,3 10 0,0
15.08.2018 13:00:00 19,5 15,4 19,8 24 13 32 18 WSW 1019,1 10 0,0
15.08.2018 12:00:00 19,3 15,6 19,7 29 16 40 21 WSW 1019,1 10 0,0
15.08.2018 11:00:00 19,2 15,6 19,4 31 17 43 23 WSW 1019,3 10 0,0
15.08.2018 10:00:00 19,1 15,8 19,0 35 19 43 23 W 1018,6 10 0,0
15.08.2018 09:00:00 19,0 17,4 19,0 22 12 29 16 SW 1018,4 9 0,0
15.08.2018 08:00:00 18,6 17,3 18,4 26 14 32 18 SW 1018,1 8 0,0
15.08.2018 07:00:00 18,0 17,1 17,5 24 13 29 16 SW 1017,6 7 0,0
15.08.2018 06:00:00 18,2 17,2 17,7 21 11 25 14 SW 1017,5 7 0,0
15.08.2018 05:00:00 18,3 16,9 18,1 21 11 25 14 SW 1017,5 10 0,0
15.08.2018 04:00:00 18,2 16,4 18,0 15 8 22 12 SW 1017,8 10 0,0
15.08.2018 03:00:00 18,2 16,0 17,9 18 10 25 14 SW 1017,9 10 0,0
15.08.2018 02:00:00 18,3 15,5 18,0 15 8 22 12 SW 1018,1 10 0,0
15.08.2018 01:00:00 18,4 15,4 18,1 22 12 29 16 SW 1018,0 10 0,0
15.08.2018 00:00:00 18,6 15,4 18,2 24 13 29 16 SW 1018,0 10 0,0
14.08.2018 23:00:00 18,9 15,6 18,4 18 10 25 14 SW 1018,0 10 0,0
14.08.2018 22:00:00 19,5 15,6 18,7 24 13 36 19 SW 1017,9 10 0,0
14.08.2018 21:00:00 20,1 15,5 19,8 29 16 40 21 W 1017,4 10 0,0
14.08.2018 20:00:00 20,0 14,9 19,8 31 17 40 21 W 1017,1 10 0,0
14.08.2018 19:00:00 20,0 14,4 20,0 34 18 43 23 W 1017,3 10 0,0
14.08.2018 18:00:00 19,9 14,8 20,2 29 16 40 21 W 1017,1 10 0,0
14.08.2018 17:00:00 20,7 12,6 22,9 31 17 43 23 W 1017,1 10 0,0
14.08.2018 16:00:00 20,5 14,6 23,1 31 17 40 21 W 1017,1 10 0,0
14.08.2018 15:00:00 19,9 15,2 21,7 31 17 36 19 W 1016,8 10 0,0
14.08.2018 14:00:00 20,2 16,5 21,6 28 15 36 19 W 1016,1 10 0,0
14.08.2018 13:00:00 19,7 16,4 20,0 22 12 32 18 W 1015,6 10 0,0
14.08.2018 12:00:00 19,7 16,9 19,7 21 11 36 19 W 1015,2 10 0,1
14.08.2018 11:00:00 18,9 17,0 19,0 18 10 29 16 WNW 1014,9 10 0,2
14.08.2018 10:00:00 20,3 15,8 21,1 18 10 32 18 WNW 1014,3 10 0,0
14.08.2018 09:00:00 20,1 15,9 21,0 18 10 32 18 NW 1013,6 10 0,0
14.08.2018 08:00:00 19,3 15,5 19,1 21 11 32 18 NW 1012,9 10 0,0
14.08.2018 07:00:00 19,0 15,7 18,4 16 9 29 16 NW 1012,2 10 0,0
14.08.2018 06:00:00 18,8 16,0 18,0 16 9 29 16 NW 1011,7 10 0,0
14.08.2018 05:00:00 18,9 16,6 18,1 16 9 25 14 NW 1011,1 10 0,0
14.08.2018 04:00:00 19,2 16,7 18,6 16 9 25 14 NW 1010,8 10 0,0
14.08.2018 03:00:00 19,7 16,2 19,1 21 11 32 18 WNW 1010,1 10 0,0
14.08.2018 02:00:00 19,7 17,6 19,6 28 15 40 21 W 1009,9 10 0,0
14.08.2018 01:00:00 20,0 16,9 19,4 29 16 40 21 W 1009,6 33 0,0
14.08.2018 00:00:00 19,9 17,6 19,5 34 18 43 23 W 1009,0 10 0,0
13.08.2018 23:00:00 20,0 17,6 19,6 41 22 50 27 WSW 1008,4 10 0,0
13.08.2018 22:00:00 20,5 17,3 19,9 31 17 43 23 W 1008,1 10 0,0
13.08.2018 21:00:00 19,9 16,9 19,5 34 18 40 21 W 1007,7 10 0,0
13.08.2018 20:00:00 20,0 16,2 19,8 31 17 40 21 W 1007,4 10 0,0
13.08.2018 19:00:00 20,3 15,5 20,7 29 16 40 21 W 1007,0 10 0,0
13.08.2018 18:00:00 20,4 16,0 22,1 28 15 36 19 W 1006,7 10 0,0
13.08.2018 17:00:00 20,7 15,6 21,3 29 16 40 21 W 1006,6 10 0,0
13.08.2018 16:00:00 20,7 15,9 22,4 29 16 36 19 W 1006,5 10 0,0
13.08.2018 15:00:00 20,8 15,5 22,7 26 14 36 19 W 1006,4 10 0,0
13.08.2018 14:00:00 20,0 15,8 21,0 34 18 43 23 W 1006,1 10 0,0
13.08.2018 13:00:00 19,5 16,4 19,8 29 16 43 23 W 1006,0 10 0,0
13.08.2018 12:00:00 20,0 16,7 20,6 34 18 40 21 WSW 1005,6 10 0,0
13.08.2018 11:00:00 19,3 16,9 19,6 22 12 32 18 SW 1005,8 10 0,0
13.08.2018 10:00:00 18,8 16,9 19,3 21 11 29 16 SW 1005,6 10 0,0
13.08.2018 09:00:00 17,9 17,3 17,9 21 11 25 14 SW 1005,5 8 1,7
13.08.2018 08:00:00 17,7 17,0 17,5 24 13 32 18 SW 1005,7 5 2,5
13.08.2018 07:00:00 18,5 16,4 18,1 21 11 29 16 S 1005,6 10 0,0
13.08.2018 06:00:00 19,3 16,1 18,6 18 10 22 12 S 1005,4 10 0,0
13.08.2018 05:00:00 19,6 16,7 18,9 11 6 14 8 SSW 1005,7 10 0,0
13.08.2018 04:00:00 20,1 17,0 18,4 5 3 11 6 SSE 1006,1 10 0,0
13.08.2018 03:00:00 19,5 15,6 18,5 4 2 7 4 - 1006,9 10 0,0
13.08.2018 02:00:00 20,1 16,4 19,0 2 1 7 4 - 1007,3 10 0,2
13.08.2018 01:00:00 20,6 15,7 19,7 7 4 14 8 NNW 1008,1 49 0,0
13.08.2018 00:00:00 21,1 15,3 20,6 13 7 22 12 NNW 1008,1 10 0,0
12.08.2018 23:00:00 21,1 16,5 20,7 9 5 11 6 N 1008,3 10 0,0
12.08.2018 22:00:00 21,8 17,0 21,4 13 7 18 10 NNW 1008,6 10 0,0
12.08.2018 21:00:00 23,0 16,1 22,1 9 5 11 6 S 1008,7 10 0,0
12.08.2018 20:00:00 23,8 15,1 23,1 15 8 22 12 S 1009,0 10 0,0
12.08.2018 19:00:00 24,4 15,1 24,1 16 9 25 14 S 1009,5 10 0,0
12.08.2018 18:00:00 23,7 16,2 24,8 24 13 29 16 S 1010,1 10 0,0
12.08.2018 17:00:00 24,8 12,7 25,6 22 12 32 18 S 1010,8 10 0,0
12.08.2018 16:00:00 25,6 14,5 28,6 22 12 32 18 S 1011,5 10 0,0
12.08.2018 15:00:00 25,2 12,3 27,7 26 14 40 21 S 1012,3 10 0,0
12.08.2018 14:00:00 24,7 13,4 26,8 28 15 36 19 SSW 1013,0 10 0,0
12.08.2018 13:00:00 24,0 12,3 26,3 34 18 43 23 SSW 1013,7 10 0,0
12.08.2018 12:00:00 22,8 12,4 23,6 31 17 36 19 S 1014,2 10 0,0
12.08.2018 11:00:00 21,2 12,5 21,8 31 17 47 25 SSW 1014,7 10 0,0
12.08.2018 10:00:00 20,0 12,1 20,9 31 17 40 21 S 1014,9 10 0,0
12.08.2018 09:00:00 18,7 12,1 18,7 29 16 36 19 S 1015,4 10 0,0
12.08.2018 08:00:00 17,9 11,9 17,9 24 13 32 18 S 1015,7 10 0,0
12.08.2018 07:00:00 18,1 12,5 17,8 28 15 36 19 S 1016,0 10 0,0
12.08.2018 06:00:00 18,5 12,5 17,9 22 12 29 16 SSE 1016,3 10 0,0
12.08.2018 05:00:00 18,5 11,7 18,2 22 12 29 16 S 1017,1 10 0,0
12.08.2018 04:00:00 18,4 12,9 18,1 18 10 22 12 S 1018,0 10 0,0
12.08.2018 03:00:00 18,3 12,3 18,1 21 11 25 14 S 1018,5 10 0,0
12.08.2018 02:00:00 18,6 12,6 18,0 15 8 22 12 S 1019,3 10 0,0

tt = Température de l'air
td = dewpoint
tt 5cm = Température de l'air 5cm
ff = Vitesse du vent
fx = gusts
dd = Direction du vent
ppp = reduced air pressure
vv = visibility
rr = Quantités de précipitations

stations d'obs. à proximité